Home   Weather   Rhodes   Past weeks
Flag for Greece

Past Weather in Rhodes, Rhodes, Greece — Yesterday and Last 2 Weeks

Now
55 °F

Clear.


Feels Like: 52 °F
Forecast: 62 / 53 °F
Wind: 13 mph from Northwest

Location: Rhodes Airport

Current Time: Dec 6, 2019 at 7:39:20 am

Latest Report: Dec 6, 2019 at 6:50 am


Visibility: 10 mi

Pressure: 30.12 "Hg

Humidity: 59%

Dew Point: 41 °F

Location of RhodesLocation

Past Weather in Rhodes — Graph

°F

Rhodes Temperature Yesterday

Maximum temperature yesterday: 63 °F (at 12:50 pm)
Minimum temperature yesterday: 57 °F (at 3:50 am)
Average temperature yesterday: 59 °F

High & Low Weather Summary for the Past Weeks

 TemperatureHumidityPressure
High73 °F (Nov 29, 1:50 pm)100% (Nov 27, 1:50 am)30.12 "Hg (Nov 27, 1:50 am)
Low55 °F (Dec 3, 1:50 am)46% (Dec 2, 2:50 pm)29.65 "Hg (Nov 25, 2:20 pm)
Average63 °F76%29.97 "Hg
* Reported Nov 21 6:20 am — Dec 6 6:20 am, Rhodes. Weather by CustomWeather, © 2019

Note: Actual official high and low records may vary slightly from our data, if they occured in-between our weather recording intervals... More about our weather records

Rhodes Weather History for the Previous 24 Hours

Scroll right to see more
 ConditionsComfort  
Time TempWeatherWind HumidityBarometerVisibility
6:20 am
Fri, Dec 6
55 °FPassing clouds.13 mph63%30.12 "HgN/A
5:50 am55 °FPassing clouds.13 mph63%30.12 "HgN/A
5:20 am55 °FPassing clouds.13 mph63%30.12 "HgN/A
4:50 am55 °FPassing clouds.13 mph63%30.12 "HgN/A
4:20 am57 °FPassing clouds.12 mph59%30.12 "HgN/A
3:50 am57 °FPassing clouds.9 mph59%30.12 "HgN/A
3:20 am57 °FPassing clouds.9 mph59%30.12 "HgN/A
2:50 am57 °FPassing clouds.9 mph59%30.12 "HgN/A
2:20 am57 °FPassing clouds.12 mph59%30.12 "HgN/A
1:50 am57 °FPassing clouds.13 mph59%30.12 "HgN/A
1:20 am57 °FPassing clouds.13 mph59%30.12 "HgN/A
12:50 am57 °FPassing clouds.9 mph59%30.12 "HgN/A
12:20 am57 °FPassing clouds.12 mph59%30.12 "HgN/A
11:20 pm
Thu, Dec 5
57 °FPassing clouds.13 mph55%30.12 "HgN/A
10:50 pm57 °FPassing clouds.13 mph55%30.12 "HgN/A
10:20 pm57 °FPassing clouds.13 mph55%30.12 "HgN/A
9:50 pm57 °FPassing clouds.14 mph55%30.12 "HgN/A
9:20 pm59 °FPassing clouds.14 mph51%30.12 "HgN/A
8:50 pm59 °FPassing clouds.14 mph51%30.12 "HgN/A
8:20 pm59 °FClear.14 mph55%30.12 "Hg10 mi
7:50 pm59 °FClear.12 mph59%30.09 "Hg10 mi
7:20 pm59 °FClear.14 mph59%30.09 "Hg10 mi
6:50 pm59 °FClear.14 mph59%30.09 "Hg10 mi
6:20 pm59 °FClear.13 mph59%30.09 "Hg10 mi
5:50 pm59 °FClear.13 mph59%30.09 "Hg10 mi
5:20 pm61 °FClear.13 mph55%30.09 "Hg10 mi
4:50 pm63 °FSunny.13 mph49%30.09 "Hg10 mi
4:20 pm63 °FSunny.14 mph49%30.09 "Hg10 mi
3:50 pm63 °FSunny.14 mph52%30.07 "Hg10 mi
2:20 pm63 °FPassing clouds.13 mph49%30.07 "HgN/A
1:50 pm63 °FPassing clouds.15 mph49%30.07 "HgN/A
1:20 pm63 °FPassing clouds.14 mph56%30.07 "HgN/A
12:50 pm63 °FPassing clouds.9 mph56%30.07 "HgN/A
12:20 pm61 °FPassing clouds.10 mph59%30.09 "HgN/A
11:50 am61 °FPassing clouds.10 mph59%30.09 "HgN/A
11:20 am61 °FPassing clouds.10 mph63%30.09 "HgN/A
10:50 am61 °FPassing clouds.9 mph63%30.09 "HgN/A
10:20 am59 °FPassing clouds.12 mph68%30.09 "HgN/A
9:50 am59 °FPassing clouds.10 mph68%30.09 "HgN/A
9:20 am59 °FPassing clouds.8 mph68%30.09 "HgN/A
8:50 am57 °FPassing clouds.9 mph72%30.09 "HgN/A
8:20 am57 °FPassing clouds.10 mph72%30.09 "HgN/A
7:50 am57 °FPassing clouds.12 mph72%30.09 "HgN/A
7:20 am57 °FPassing clouds.14 mph72%30.09 "HgN/A
Weather by CustomWeather, © 2019

See weather overview

Advertising